C/2013 C2 ( Tenagra )

Japanese version
Home page
Updated on March 25, 2017

---------------------------------------------------------------------

* Profile

Discovery Date February 14, 2013
Magnitude 19.0 mag
Discoverer P. R. Holvorcem, M. Schwartz (Tenagra Observatory)

* Pictures

* Orbital Elements

Epoch 2015 Sept. 15.0 TT = JDT 2457280.5
T 2015 Aug. 30.25603 TT                                 MPCW
q   9.1310588            (2000.0)            P               Q
n   0.01531190     Peri.  308.78934     -0.91035785     +0.24121725
a  16.0613981      Node   247.52478     -0.16364320     -0.95615451
e   0.4314904      Incl.   21.33912     -0.38009143     -0.16608066
P  64.37
From 368 observations 2013 Feb. 14-2016 June 11, mean residual 0".5.

* Magnitudes Graph

        m1 = 3.5 + 5 log d + 10.0 log r

---------------------------------------------------------------------

The orbital elements are published on M.P.E.C. 2016-M09.
The magnitudes graphs are made with Comet for Windows.

---------------------------------------------------------------------

Copyright(C) Seiichi Yoshida (comet@aerith.net). All rights reserved.